RYR41BZ EIDW-EGSS

Flight info

Callsign RYR41BZ
Flight time 0h 57m
Altitude 33000
Route ENDEQ1E ENDEQ Q36 NOSLO Z197 LISTO
Aircraft B738/M-SDE2E3FGHIRWXY/LB1

Departure

Time 2026-05-04 12:14
Airport Dublin Airport (EIDW)

Arrival

Time 2026-05-04 13:12
Airport London Stansted Airport (EGSS)
Time Latitude Longitude Altitude Speed Heading
2026-05-04 11:39 53.43131 -6.25265 210 ft 0 kts 67°
2026-05-04 12:04 53.43124 -6.25290 212 ft 2 kts 66°
2026-05-04 12:04 53.43118 -6.25315 211 ft 2 kts 67°
2026-05-04 12:04 53.43113 -6.25332 221 ft 2 kts 73°
2026-05-04 12:05 53.43116 -6.25367 212 ft 2 kts 140°
2026-05-04 12:05 53.43123 -6.25375 212 ft 1 kts 152°
2026-05-04 12:05 53.43125 -6.25376 212 ft 0 kts 154°
2026-05-04 12:08 53.43124 -6.25376 237 ft 1 kts 154°
2026-05-04 12:08 53.43101 -6.25358 218 ft 6 kts 158°
2026-05-04 12:08 53.43043 -6.25316 212 ft 12 kts 156°
2026-05-04 12:09 53.42951 -6.25288 210 ft 15 kts 223°
2026-05-04 12:09 53.42885 -6.25421 215 ft 15 kts 225°
2026-05-04 12:09 53.42810 -6.25549 212 ft 17 kts 225°
2026-05-04 12:09 53.42720 -6.25702 213 ft 16 kts 225°
2026-05-04 12:10 53.42618 -6.25714 213 ft 16 kts 157°
2026-05-04 12:10 53.42517 -6.25727 210 ft 17 kts 223°
2026-05-04 12:10 53.42419 -6.25894 210 ft 23 kts 225°
2026-05-04 12:10 53.42298 -6.26111 211 ft 28 kts 235°
2026-05-04 12:11 53.42275 -6.26445 210 ft 31 kts 276°
2026-05-04 12:11 53.42295 -6.26795 210 ft 29 kts 275°
2026-05-04 12:11 53.42311 -6.27126 212 ft 28 kts 275°
2026-05-04 12:11 53.42329 -6.27437 210 ft 26 kts 275°
2026-05-04 12:12 53.42344 -6.27727 210 ft 24 kts 275°
2026-05-04 12:12 53.42359 -6.27998 210 ft 23 kts 275°
2026-05-04 12:12 53.42372 -6.28246 214 ft 17 kts 269°
2026-05-04 12:12 53.42290 -6.28308 210 ft 14 kts 152°
2026-05-04 12:13 53.42217 -6.28204 217 ft 13 kts 140°
2026-05-04 12:14 53.41651 -6.17876 2687 ft 217 kts 93°
2026-05-04 12:15 53.41495 -6.15243 3031 ft 234 kts 93°
2026-05-04 12:15 53.41334 -6.12453 3442 ft 250 kts 94°
2026-05-04 12:15 53.41165 -6.09488 3977 ft 261 kts 94°
2026-05-04 12:15 53.40991 -6.06440 4836 ft 262 kts 94°
2026-05-04 12:16 53.40898 -6.03365 5750 ft 266 kts 86°
2026-05-04 12:16 53.41085 -6.00247 6635 ft 271 kts 82°
2026-05-04 12:16 53.41342 -5.97092 7519 ft 275 kts 82°
2026-05-04 12:16 53.41598 -5.93898 8408 ft 278 kts 82°
2026-05-04 12:17 53.41840 -5.90657 9301 ft 282 kts 83°
2026-05-04 12:17 53.42067 -5.87405 10148 ft 287 kts 83°
2026-05-04 12:17 53.42300 -5.83959 10641 ft 305 kts 83°
2026-05-04 12:17 53.42545 -5.80322 10861 ft 330 kts 83°
2026-05-04 12:18 53.42807 -5.76429 11444 ft 340 kts 83°
2026-05-04 12:18 53.43078 -5.72409 12244 ft 345 kts 83°
2026-05-04 12:18 53.43343 -5.68451 13063 ft 348 kts 83°
2026-05-04 12:18 53.43613 -5.64397 13876 ft 352 kts 83°
2026-05-04 12:19 53.43887 -5.60301 14605 ft 355 kts 83°
2026-05-04 12:19 53.44160 -5.56171 15353 ft 358 kts 83°
2026-05-04 12:19 53.44433 -5.52006 16094 ft 361 kts 83°
2026-05-04 12:19 53.44625 -5.47796 16824 ft 364 kts 89°
2026-05-04 12:20 53.44561 -5.43518 17525 ft 369 kts 92°
2026-05-04 12:20 53.44403 -5.39213 18226 ft 372 kts 93°
2026-05-04 12:20 53.44240 -5.34869 18879 ft 374 kts 92°
2026-05-04 12:20 53.44096 -5.30510 19603 ft 374 kts 92°
2026-05-04 12:21 53.43972 -5.26131 20172 ft 379 kts 91°
2026-05-04 12:21 53.43857 -5.21699 20762 ft 382 kts 91°
2026-05-04 12:21 53.43741 -5.17250 21421 ft 383 kts 91°
2026-05-04 12:21 53.43615 -5.12773 22032 ft 385 kts 92°
2026-05-04 12:22 53.43474 -5.08268 22610 ft 388 kts 92°
2026-05-04 12:22 53.43327 -5.03730 23199 ft 391 kts 92°
2026-05-04 12:22 53.43180 -4.99170 23764 ft 393 kts 91°
2026-05-04 12:22 53.43033 -4.94579 24242 ft 395 kts 91°
2026-05-04 12:23 53.42883 -4.89972 24728 ft 397 kts 91°
2026-05-04 12:23 53.42730 -4.85344 25213 ft 398 kts 91°
2026-05-04 12:23 53.42575 -4.80700 25676 ft 400 kts 91°
2026-05-04 12:23 53.42417 -4.76029 26125 ft 402 kts 91°
2026-05-04 12:24 53.42257 -4.71332 26558 ft 405 kts 91°
2026-05-04 12:24 53.42095 -4.66613 26999 ft 406 kts 91°
2026-05-04 12:24 53.41931 -4.61875 27440 ft 408 kts 91°
2026-05-04 12:24 53.41765 -4.57127 27935 ft 408 kts 90°
2026-05-04 12:25 53.41597 -4.52395 28577 ft 404 kts 90°
2026-05-04 12:25 53.41429 -4.47718 29247 ft 400 kts 90°
2026-05-04 12:25 53.41261 -4.43081 29856 ft 398 kts 90°
2026-05-04 12:25 53.41092 -4.38464 30360 ft 396 kts 90°
2026-05-04 12:26 53.40925 -4.33920 30806 ft 395 kts 90°
2026-05-04 12:26 53.40755 -4.29339 31287 ft 393 kts 90°
2026-05-04 12:26 53.40584 -4.24782 31763 ft 391 kts 91°
2026-05-04 12:26 53.40412 -4.20247 32205 ft 389 kts 91°
2026-05-04 12:27 53.40239 -4.15727 32617 ft 388 kts 91°
2026-05-04 12:27 53.40066 -4.11214 33021 ft 388 kts 91°
2026-05-04 12:27 53.39711 -4.02106 33083 ft 393 kts 91°
2026-05-04 12:28 53.39345 -3.93053 33071 ft 385 kts 91°
2026-05-04 12:28 53.38977 -3.84097 33087 ft 386 kts 91°
2026-05-04 12:29 53.38606 -3.75115 33085 ft 387 kts 91°
2026-05-04 12:29 53.38221 -3.66106 33084 ft 388 kts 92°
2026-05-04 12:30 53.37206 -3.57169 33081 ft 392 kts 100°
2026-05-04 12:30 53.35946 -3.48289 33076 ft 392 kts 100°
2026-05-04 12:31 53.34715 -3.39394 33072 ft 392 kts 100°
2026-05-04 12:31 53.33417 -3.30583 33077 ft 393 kts 102°
2026-05-04 12:32 53.31199 -3.17402 33075 ft 392 kts 102°
2026-05-04 12:33 53.29737 -3.08647 33074 ft 391 kts 102°
2026-05-04 12:33 53.28286 -2.99905 33078 ft 390 kts 102°
2026-05-04 12:34 53.26837 -2.91188 33079 ft 389 kts 102°
2026-05-04 12:34 53.25376 -2.82478 33082 ft 389 kts 103°
2026-05-04 12:35 53.23872 -2.73790 33072 ft 390 kts 103°
2026-05-04 12:35 53.22345 -2.65117 33078 ft 390 kts 103°
2026-05-04 12:36 53.20818 -2.56446 33071 ft 390 kts 103°
2026-05-04 12:36 53.19286 -2.47759 33072 ft 391 kts 103°
2026-05-04 12:37 53.17747 -2.39064 33068 ft 391 kts 104°
2026-05-04 12:37 53.16204 -2.30382 33072 ft 391 kts 104°
2026-05-04 12:38 53.14457 -2.21806 33055 ft 389 kts 116°
2026-05-04 12:38 53.12866 -2.18202 33067 ft 389 kts 132°
2026-05-04 12:38 53.10785 -2.15315 33080 ft 390 kts 139°
2026-05-04 12:39 53.06353 -2.10014 32900 ft 395 kts 141°
2026-05-04 12:39 53.04119 -2.07381 32626 ft 391 kts 141°
2026-05-04 12:39 53.01918 -2.04767 32238 ft 387 kts 140°
2026-05-04 12:39 52.99750 -2.02171 31898 ft 383 kts 140°
2026-05-04 12:40 52.97603 -1.99584 31525 ft 380 kts 140°
2026-05-04 12:40 52.95471 -1.97008 31170 ft 377 kts 140°
2026-05-04 12:40 52.93358 -1.94454 30816 ft 374 kts 140°
2026-05-04 12:40 52.91259 -1.91917 30474 ft 372 kts 140°
2026-05-04 12:41 52.89174 -1.89400 30114 ft 370 kts 140°
2026-05-04 12:41 52.87103 -1.86903 29702 ft 367 kts 141°
2026-05-04 12:41 52.85075 -1.84460 29337 ft 363 kts 141°
2026-05-04 12:41 52.83040 -1.82012 28969 ft 360 kts 141°
2026-05-04 12:42 52.81029 -1.79593 28600 ft 357 kts 141°
2026-05-04 12:42 52.79029 -1.77192 28255 ft 353 kts 142°
2026-05-04 12:42 52.77049 -1.74820 27877 ft 350 kts 142°
2026-05-04 12:42 52.75082 -1.72469 27518 ft 348 kts 143°
2026-05-04 12:43 52.73046 -1.70321 27185 ft 346 kts 149°
2026-05-04 12:43 52.70933 -1.68465 26836 ft 343 kts 152°
2026-05-04 12:43 52.68802 -1.66701 26489 ft 341 kts 153°
2026-05-04 12:43 52.66686 -1.64960 26150 ft 339 kts 153°
2026-05-04 12:44 52.64589 -1.63217 25808 ft 337 kts 153°
2026-05-04 12:44 52.62511 -1.61471 25476 ft 335 kts 153°
2026-05-04 12:44 52.60445 -1.59721 25144 ft 333 kts 153°
2026-05-04 12:44 52.58395 -1.57977 24816 ft 331 kts 153°
2026-05-04 12:45 52.56357 -1.56239 24482 ft 329 kts 153°
2026-05-04 12:45 52.54327 -1.54505 24155 ft 328 kts 154°
2026-05-04 12:45 52.52310 -1.52783 23830 ft 327 kts 154°
2026-05-04 12:45 52.50296 -1.51065 23485 ft 325 kts 154°
2026-05-04 12:46 52.48291 -1.49355 23148 ft 324 kts 154°
2026-05-04 12:46 52.46294 -1.47655 22800 ft 322 kts 154°
2026-05-04 12:46 52.44319 -1.45973 22478 ft 319 kts 154°
2026-05-04 12:46 52.42354 -1.44303 22140 ft 317 kts 154°
2026-05-04 12:47 52.40405 -1.42647 21818 ft 314 kts 154°
2026-05-04 12:47 52.38470 -1.41004 21500 ft 312 kts 154°
2026-05-04 12:47 52.36547 -1.39372 21186 ft 310 kts 154°
2026-05-04 12:47 52.34635 -1.37751 20872 ft 309 kts 154°
2026-05-04 12:48 52.32733 -1.36143 20557 ft 307 kts 154°
2026-05-04 12:48 52.30844 -1.34548 20250 ft 305 kts 154°
2026-05-04 12:48 52.28963 -1.32942 19937 ft 304 kts 153°
2026-05-04 12:48 52.27114 -1.31233 19644 ft 307 kts 151°
2026-05-04 12:49 52.25248 -1.29459 19352 ft 314 kts 151°
2026-05-04 12:49 52.23349 -1.27648 19038 ft 319 kts 151°
2026-05-04 12:49 52.21434 -1.25826 18712 ft 321 kts 151°
2026-05-04 12:49 52.19502 -1.23995 18390 ft 322 kts 151°
2026-05-04 12:50 52.17564 -1.22165 18018 ft 320 kts 151°
2026-05-04 12:50 52.15642 -1.20354 17674 ft 318 kts 151°
2026-05-04 12:50 52.13735 -1.18561 17336 ft 315 kts 151°
2026-05-04 12:50 52.11844 -1.16784 17015 ft 313 kts 151°
2026-05-04 12:51 52.09990 -1.15046 16707 ft 310 kts 151°
2026-05-04 12:51 52.08129 -1.13301 16393 ft 307 kts 152°
2026-05-04 12:51 52.06282 -1.11572 16083 ft 305 kts 152°
2026-05-04 12:51 52.04453 -1.09864 15785 ft 302 kts 152°
2026-05-04 12:52 52.02638 -1.08173 15472 ft 300 kts 152°
2026-05-04 12:52 52.00953 -1.06198 15144 ft 301 kts 133°
2026-05-04 12:52 52.00164 -1.04308 14990 ft 300 kts 117°
2026-05-04 12:52 51.99610 -1.01081 14833 ft 299 kts 96°
2026-05-04 12:53 51.99543 -0.97704 14687 ft 302 kts 92°
2026-05-04 12:53 51.99556 -0.94270 14512 ft 308 kts 91°
2026-05-04 12:53 51.99583 -0.90789 14327 ft 310 kts 91°
2026-05-04 12:53 51.99607 -0.87306 14140 ft 308 kts 91°
2026-05-04 12:54 51.99623 -0.83824 13957 ft 307 kts 91°
2026-05-04 12:54 51.99632 -0.80369 13772 ft 306 kts 91°
2026-05-04 12:54 51.99636 -0.76924 13573 ft 305 kts 91°
2026-05-04 12:54 51.99636 -0.73494 13390 ft 303 kts 91°
2026-05-04 12:55 51.99634 -0.70079 13213 ft 302 kts 91°
2026-05-04 12:55 51.99630 -0.66682 13040 ft 301 kts 91°
2026-05-04 12:55 51.99625 -0.63336 12867 ft 300 kts 91°
2026-05-04 12:55 51.99618 -0.59911 12695 ft 299 kts 92°
2026-05-04 12:56 51.99611 -0.56536 12521 ft 299 kts 91°
2026-05-04 12:56 51.99603 -0.53165 12351 ft 299 kts 92°
2026-05-04 12:56 51.99595 -0.49789 12180 ft 299 kts 92°
2026-05-04 12:56 51.99584 -0.46406 12008 ft 299 kts 92°
2026-05-04 12:57 51.99572 -0.43072 11840 ft 300 kts 92°
2026-05-04 12:57 51.99558 -0.39645 11660 ft 300 kts 92°
2026-05-04 12:57 51.99529 -0.36304 11485 ft 300 kts 92°
2026-05-04 12:57 51.99489 -0.32926 11321 ft 299 kts 92°
2026-05-04 12:58 51.99446 -0.29552 11139 ft 299 kts 92°
2026-05-04 12:58 51.99404 -0.26186 10963 ft 299 kts 92°
2026-05-04 12:58 51.99361 -0.22815 10784 ft 299 kts 92°
2026-05-04 12:58 51.99319 -0.19444 10602 ft 299 kts 92°
2026-05-04 12:59 51.99278 -0.16077 10421 ft 298 kts 91°
2026-05-04 12:59 51.99550 -0.12769 10235 ft 296 kts 72°
2026-05-04 12:59 52.00481 -0.09854 10060 ft 289 kts 51°
2026-05-04 12:59 52.01859 -0.07547 9950 ft 282 kts 42°
2026-05-04 13:00 52.03307 -0.05430 9874 ft 279 kts 41°
2026-05-04 13:00 52.04759 -0.03341 9717 ft 281 kts 41°
2026-05-04 13:00 52.06033 -0.00906 9428 ft 287 kts 61°
2026-05-04 13:00 52.06712 0.02140 9143 ft 288 kts 82°
2026-05-04 13:01 52.06701 0.05358 8707 ft 284 kts 103°
2026-05-04 13:01 52.06000 0.08289 8294 ft 276 kts 124°
2026-05-04 13:01 52.04877 0.10780 7903 ft 271 kts 130°
2026-05-04 13:01 52.03705 0.13146 7484 ft 268 kts 130°
2026-05-04 13:02 52.02528 0.15471 7076 ft 265 kts 131°
2026-05-04 13:02 52.01355 0.17761 6677 ft 262 kts 131°
2026-05-04 13:02 52.00189 0.20012 6281 ft 259 kts 131°
2026-05-04 13:02 51.99014 0.22215 5853 ft 257 kts 136°
2026-05-04 13:03 51.97550 0.23809 5441 ft 254 kts 160°
2026-05-04 13:03 51.95819 0.24129 5039 ft 253 kts 190°
2026-05-04 13:03 51.94224 0.22991 4694 ft 254 kts 220°
2026-05-04 13:03 51.92999 0.20919 4380 ft 255 kts 230°
2026-05-04 13:04 51.91869 0.18722 4145 ft 253 kts 231°
2026-05-04 13:04 51.90758 0.16529 3900 ft 251 kts 231°
2026-05-04 13:04 51.89659 0.14345 3644 ft 250 kts 231°
2026-05-04 13:04 51.88564 0.12165 3395 ft 250 kts 231°
2026-05-04 13:05 51.87472 0.09993 3126 ft 245 kts 231°
2026-05-04 13:05 51.86412 0.07888 2845 ft 238 kts 231°
2026-05-04 13:05 51.85389 0.05868 2630 ft 225 kts 231°
2026-05-04 13:05 51.84419 0.03965 2483 ft 213 kts 231°
2026-05-04 13:06 51.83506 0.02190 2456 ft 199 kts 231°
2026-05-04 13:06 51.82576 0.00563 2441 ft 198 kts 214°
2026-05-04 13:06 51.81282 -0.00077 2472 ft 199 kts 176°
2026-05-04 13:06 51.79929 0.00432 2486 ft 201 kts 162°
2026-05-04 13:07 51.78603 0.01143 2470 ft 200 kts 161°
2026-05-04 13:07 51.77304 0.01863 2466 ft 194 kts 157°
2026-05-04 13:07 51.76301 0.03203 2452 ft 186 kts 114°
2026-05-04 13:07 51.76224 0.05162 2462 ft 175 kts 65°
2026-05-04 13:08 51.77055 0.06500 2494 ft 171 kts 31°
2026-05-04 13:08 51.78005 0.07670 2469 ft 174 kts 42°
2026-05-04 13:08 51.78888 0.08998 2475 ft 172 kts 43°
2026-05-04 13:08 51.79756 0.10314 2459 ft 171 kts 43°
2026-05-04 13:09 51.80637 0.11643 2282 ft 175 kts 43°
2026-05-04 13:09 51.81503 0.12949 2050 ft 165 kts 43°
2026-05-04 13:09 51.82307 0.14160 1859 ft 154 kts 43°
2026-05-04 13:09 51.83083 0.15331 1642 ft 151 kts 43°
2026-05-04 13:10 51.83845 0.16479 1430 ft 149 kts 43°
2026-05-04 13:10 51.84598 0.17627 1189 ft 151 kts 43°
2026-05-04 13:10 51.85366 0.18809 993 ft 155 kts 42°
2026-05-04 13:10 51.86154 0.19972 814 ft 153 kts 41°
2026-05-04 13:11 51.86932 0.21136 582 ft 151 kts 43°
2026-05-04 13:11 51.87695 0.22289 380 ft 149 kts 42°
2026-05-04 13:11 51.88405 0.23340 351 ft 123 kts 41°
2026-05-04 13:11 51.88929 0.24123 351 ft 79 kts 43°
2026-05-04 13:12 51.89212 0.24545 352 ft 25 kts 42°
2026-05-04 13:12 51.89241 0.24713 355 ft 14 kts 110°
2026-05-04 13:12 51.89195 0.24812 354 ft 9 kts 134°
2026-05-04 13:12 51.89157 0.24895 354 ft 9 kts 107°
2026-05-04 13:13 51.89181 0.24984 358 ft 9 kts 46°
2026-05-04 13:13 51.89221 0.25062 359 ft 9 kts 54°
2026-05-04 13:13 51.89256 0.25152 360 ft 10 kts 58°
2026-05-04 13:13 51.89311 0.25252 356 ft 14 kts 43°
2026-05-04 13:14 51.89390 0.25370 356 ft 17 kts 43°
2026-05-04 13:14 51.89486 0.25513 356 ft 20 kts 43°
2026-05-04 13:14 51.89573 0.25644 358 ft 12 kts 43°
2026-05-04 13:14 51.89584 0.25661 356 ft 0 kts 43°
2026-05-04 13:16 51.89588 0.25668 356 ft 3 kts 43°
2026-05-04 13:16 51.89611 0.25728 363 ft 10 kts 78°
2026-05-04 13:16 51.89555 0.25839 360 ft 17 kts 149°
2026-05-04 13:17 51.89472 0.25960 360 ft 15 kts 132°
2026-05-04 13:17 51.89402 0.26081 356 ft 14 kts 133°
2026-05-04 13:17 51.89379 0.26122 361 ft 1 kts 136°
2026-05-04 13:17 51.89356 0.26135 358 ft 3 kts 184°
2026-05-04 13:18 51.89334 0.26103 363 ft 6 kts 223°
2026-05-04 13:18 51.89319 0.26081 360 ft 0 kts 223°